Location: Gosheim
(48.8325°N, 10.7198°E)
Time: 11:15:07
(UTC+00:00)

Daily predictions for brighter satellites

Satellite Brightness Start Highest point End
(mag) Time Altitude Azimuth Time Altitude Azimuth Time Altitude Azimuth
Nadezhda 4 Rocket 4.2 19:26:26 10° SSE 19:32:22 52° E 19:38:24 10° NNE
Landsat 7 3.9 19:33:40 10° SSE 19:38:22 66° ENE 19:43:06 10° N
ISS -3.6 19:36:02 10° WNW 19:39:24 69° SSW 19:42:45 10° ESE
Spot 2 Rocket 4.4 19:35:23 10° SE 19:39:55 34° ENE 19:44:29 10° N
SPOT 3 Rocket 3.7 19:34:56 10° SSE 19:40:05 63° ENE 19:45:16 10° N
Cosmos 1825 3.8 19:37:26 10° SW 19:40:57 39° WNW 19:44:31 10° N
IGS 5A 3.5 19:37:26 10° SSE 19:41:34 78° ENE 19:45:44 10° N
BREEZE-M DEB (TANK) 3.5 19:31:15 10° W 19:43:45 87° N 19:47:17 10° E
Cosmos 1980 Rocket 2.5 19:38:30 10° NNW 19:44:06 70° WSW 19:49:42 10° SSE
Cosmos 2369 4.4 19:38:53 10° NW 19:44:22 52° WSW 19:49:49 10° S
Cosmos 2058 3.7 19:41:37 10° SSW 19:45:44 56° WNW 19:49:54 10° N
MetOp-B 4.3 19:41:15 10° SSE 19:46:31 63° ENE 19:51:49 10° N
USA 234 4.3 19:40:27 10° ENE 19:46:35 44° N 19:52:43 10° WNW
CZ-2C R/B 4.5 19:42:37 10° NNE 19:46:42 32° E 19:50:43 10° SSE
Cosmos 2221 3.3 19:44:56 10° NNW 19:49:08 53° W 19:53:20 10° S
RESURS DK-1 2.5 19:47:11 10° SSW 19:51:21 84° WNW 19:55:32 10° NNE
USA 245 4.1 19:48:26 10° SE 19:53:18 48° ENE 19:57:16 10° N
Meteor 2-15 4.5 19:47:50 10° N 19:53:55 69° ENE 19:59:57 10° SSE
Cosmos 2322 Rocket 3.0 19:49:30 10° NNW 19:54:48 39° NE 19:59:58 10° ESE
COSMOS 2406 4.2 19:49:17 10° SW 19:54:49 52° NW 20:00:25 10° NNE
BREEZE-M DEB (TANK) 3.6 19:51:27 10° SW 19:54:59 48° SE 20:06:29 10° ENE
Cosmos 304 Rocket 3.9 19:54:37 10° NNW 19:59:24 65° ENE 20:03:55 11° SSE
BREEZE-M DEB (TANK) 3.7 19:57:21 10° W 20:00:28 60° SSW 20:09:24 10° ESE
Cosmos 1933 3.5 19:56:42 10° N 20:00:42 55° ENE 20:04:32 11° SSE
Cosmos 1538 Rocket 3.9 19:56:57 10° SSW 20:02:08 72° ESE 20:07:19 10° NNE
Resurs 01 Rocket 2.0 19:59:51 10° S 20:04:15 65° WSW 20:08:42 10° NNW
ERS-2 2.6 20:01:24 10° N 20:05:02 65° WNW 20:08:38 10° SSW
Cosmos 2151 3.0 20:02:17 10° S 20:06:28 64° E 20:10:43 10° NNE
Cosmos 2098 Rocket 2.7 20:04:39 10° SSW 20:07:45 71° WNW 20:11:29 10° N
Gbstr 26 Del rocket 2.6 20:05:48 10° WNW 20:09:32 82° SSW 20:12:56 14° ESE
Meteor 2-3 Rocket 3.9 20:06:09 10° S 20:11:40 58° E 20:17:18 10° NNE
Meteor 2-15 Rocket 4.4 20:05:58 10° N 20:12:05 74° E 20:18:09 10° SSE
CARTOSAT-1 3.8 20:09:29 13° SSE 20:13:16 56° ENE 20:17:31 10° N
Cosmos 2219 Rocket 4.1 20:11:55 10° N 20:15:55 19° NE 20:19:54 10° E
Ariane Rocket 4.4 20:14:10 10° SSW 20:18:48 36° W 20:23:29 10° NNW
SL-16 R/B 2.3 20:17:48 10° NNW 20:23:31 75° ENE 20:28:03 16° SE
Cosmos 1782 2.9 20:23:09 10° N 20:27:10 64° ENE 20:30:03 18° SSE
Cosmos 371 Rocket 4.3 20:23:25 10° NW 20:27:57 41° WSW 20:32:27 10° S
ARIANE 5 R/B 2.7 20:26:51 16° SSE 20:30:22 71° ENE 20:34:49 10° N
Cosmos 1271 Rocket 2.9 20:29:45 10° NNW 20:33:45 79° W 20:36:56 16° S
SPOT 1/Viking Rocket 4.0 20:31:29 10° S 20:36:36 59° WSW 20:41:47 10° NNW
USA 276 2.4 20:34:06 10° W 20:37:11 49° SSW 20:38:32 27° SE
BREEZE-M DEB (TANK) 3.2 20:35:12 10° W 20:38:18 44° SSW 20:43:14 18° SE
Cosmos 2195 Rocket 4.4 20:32:42 10° S 20:38:49 89° ESE 20:44:59 10° N
Cosmos 1151 Rocket 3.0 20:36:24 10° N 20:40:47 71° E 20:43:40 21° SSE
Cosmos 1766 Rocket 3.7 20:37:42 17° SSE 20:40:53 54° E 20:45:11 10° NNE
ATLAS 5 CENTAUR R/B 3.9 20:38:11 10° NNW 20:42:27 25° NNE 20:47:19 10° E
Cosmos 1328 Rocket 3.7 20:40:35 10° N 20:45:01 61° ENE 20:47:39 23° SSE
ATLAS 2AS CENTAUR R/B 4.0 20:38:40 10° WSW 20:46:18 49° NW 20:53:40 10° NE
Cosmos 923 Rocket 4.0 20:43:10 10° SSW 20:48:30 80° ESE 20:53:53 10° NNE
ATLAS 3B R/B 3.8 20:44:07 10° NW 20:50:35 38° WSW 20:56:42 12° S
Terra 1.9 20:47:56 22° SSE 20:50:56 66° ENE 20:55:41 10° N
USA 267 4.0 20:48:00 10° ENE 20:53:35 29° SE 20:59:01 10° S
SPOT 5 2.6 20:50:48 21° SSE 20:53:37 86° WSW 20:58:03 10° NNW
Cosmos 1092 Rocket 4.4 20:50:46 10° SSW 20:56:58 66° WNW 21:03:18 10° N
Cosmos 2082 Rocket 4.0 20:52:14 10° WSW 20:57:21 34° NW 21:02:32 10° NNE
Cosmos 2056 Rocket 3.6 20:53:38 10° NNW 20:59:02 73° ENE 21:02:09 25° SSE
NOSS 2-1 (C) 3.4 21:00:50 35° SE 21:00:55 35° ESE 21:04:00 10° NE
BREEZE-M DEB (TANK) 1.4 21:00:57 10° W 21:03:03 81° N 21:03:12 71° ENE
ERS-1 Rocket 3.1 21:00:35 20° S 21:04:04 71° WSW 21:09:06 10° NNW
Cosmos 2360 Rocket 2.2 21:01:13 10° NNW 21:06:53 75° ENE 21:10:08 26° SE
SL-27 R/B 3.0 21:06:23 36° SE 21:07:00 39° ESE 21:10:24 10° NE
Meteor 2-21 4.4 21:02:38 17° S 21:07:27 73° E 21:13:35 10° NNE
NOSS 2-1 (D) 3.1 21:08:18 42° SE 21:08:34 43° SE 21:11:47 10° NE
Cosmos 2026 Rocket 4.4 21:03:40 10° SSW 21:09:57 66° WNW 21:16:13 10° N
GP-B 4.1 21:08:04 10° N 21:12:19 45° W 21:16:14 12° SSW
ISS -1.6 21:13:44 10° W 21:15:44 15° SW 21:15:56 15° SW
Cosmos 2333 Rocket 2.8 21:11:56 10° NNW 21:17:26 49° NE 21:20:38 24° ESE
Meteor 1-10 Rocket 4.1 21:14:20 10° N 21:19:55 79° ENE 21:22:51 29° SSE
Cosmos 1371 Rocket 4.2 21:15:08 10° NNW 21:20:30 71° WSW 21:23:22 28° S
Cosmos 1812 3.0 21:17:35 10° NNW 21:21:24 62° W 21:23:04 31° SSW
Cosmos 2112 Rocket 4.1 21:17:51 10° SSW 21:23:09 83° WNW 21:28:28 10° NNE
Cosmos 1680 Rocket 3.7 21:18:24 10° SSW 21:23:40 72° WNW 21:28:57 10° NNE
Cosmos 1500 Rocket 4.1 21:22:35 34° SE 21:23:47 42° E 21:27:59 10° NNE
Cosmos 2322 4.1 21:22:09 10° NNW 21:27:47 55° NE 21:30:49 27° ESE
Okean 3 Rocket 4.2 21:24:58 15° SSW 21:28:30 54° WNW 21:32:57 10° N
USA 234 3.6 21:22:42 11° ESE 21:29:03 63° NNE 21:35:31 10° NW
COBE Rocket 4.4 21:29:38 30° ESE 21:31:22 42° ENE 21:35:48 10° N
Cosmos 292 Rocket 3.7 21:26:58 10° NNW 21:31:47 84° ENE 21:33:40 37° SSE
Cosmos 2237 Rocket 4.0 21:33:15 10° N 21:37:47 24° NE 21:42:14 10° E
Cosmos 2322 Rocket 3.0 21:33:39 10° NW 21:38:53 41° WSW 21:41:46 23° SSW
Meteor 2-16 Rocket 4.4 21:35:25 27° S 21:38:58 81° E 21:45:05 10° NNE
Cosmos 1408 Rocket 3.7 21:40:12 30° SSW 21:42:18 71° W 21:46:39 10° N
Cosmos 1743 Rocket 3.6 21:42:22 43° SSE 21:43:39 66° E 21:48:04 10° NNE
Cosmos 2285 Rocket 4.2 21:38:19 10° NNW 21:44:35 61° ENE 21:47:42 30° SE
IRIDIUM 106 4.4 21:41:12 10° N 21:46:24 64° E 21:48:18 38° SSE
Cosmos 2315 Rocket 4.1 21:43:01 10° N 21:49:20 72° ENE 21:52:17 34° SSE
Sich 1 3.7 21:51:50 35° ESE 21:52:20 37° E 21:56:21 10° NNE
Cosmos 2084 3.5 21:48:52 12° SW 21:52:39 71° NW 21:56:51 10° NE
Cosmos 2266 Rocket 3.9 21:53:29 29° S 21:56:53 87° W 22:03:10 10° N
Cosmos 1048 Rocket 4.4 21:59:25 39° SE 22:00:20 43° ESE 22:05:11 10° NE
Cosmos 2219 Rocket 2.1 21:55:10 10° NNW 22:00:48 80° ENE 22:02:58 39° SE
Cosmos 2228 Rocket 3.0 22:00:38 10° N 22:05:04 89° W 22:06:05 53° S
H-2A R/B 4.2 22:01:12 10° N 22:05:18 51° WNW 22:07:14 28° SW
NOSS 2-1 (E) 3.5 22:05:22 30° WSW 22:06:43 55° NW 22:10:13 10° NE
SL-16 R/B 4.1 22:02:59 10° NW 22:06:59 20° W 22:09:55 14° SW
NOSS 3-1 (C) 4.1 22:02:44 10° NW 22:10:09 74° SW 22:14:30 32° SSE
Cosmos 2333 4.3 22:04:46 10° NNW 22:10:20 65° WSW 22:12:13 41° S
COSMOS 2455 2.8 22:09:10 35° S 22:11:40 66° ESE 22:17:39 10° NE
COSMOS 2428 2.7 22:09:48 10° NNW 22:15:33 84° ENE 22:17:35 42° SSE
Cosmos 1655 Rocket 4.5 22:12:44 22° SSW 22:16:53 58° WNW 22:23:13 10° N
Cosmos 1602 4.1 22:17:48 50° E 22:17:48 50° E 22:21:30 10° NNE
Cosmos 1515 3.6 22:16:54 10° N 22:20:41 69° E 22:20:48 68° E
Cosmos 1862 Rocket 4.4 22:18:07 10° N 22:22:11 37° ENE 22:22:56 34° E
Spot 4 3.8 22:21:45 51° S 22:22:57 80° WSW 22:27:49 10° NNW
USA 229 DEB 3.9 22:17:05 10° NW 22:24:24 87° SW 22:28:16 33° SE
USA 229 3.9 22:17:10 10° NW 22:24:30 88° SW 22:28:23 33° SE
ATLAS 5 CENTAUR R/B 2.3 22:22:22 10° NW 22:27:49 78° NE 22:30:39 34° SE
Terra 4.0 22:26:49 13° WSW 22:29:10 17° W 22:32:17 10° NW
Cosmos 1452 Rocket 3.8 22:26:21 10° NNW 22:31:30 56° WSW 22:32:49 44° SSW
COSMOS 2487 2.6 22:31:49 66° NW 22:31:49 66° NW 22:35:03 10° NNE
Cosmos 1707 Rocket 3.4 22:27:20 10° N 22:31:43 79° E 22:32:18 65° SSE
ALOS 2 2.5 22:33:57 62° SE 22:34:37 80° ENE 22:39:03 10° NNW
USA 267 3.2 22:30:36 10° NE 22:37:10 85° SE 22:43:45 10° SW
Nadezhda 1 Rocket 4.4 22:35:38 10° N 22:41:56 54° ENE 22:44:26 35° SE
Cosmos 1666 4.0 22:44:25 29° E 22:44:25 29° E 22:47:29 10° NNE
NOSS 3-1 (A) 4.1 22:37:24 10° NW 22:44:51 73° SW 22:48:49 35° SSE
SL-08 ROCKET BODY 4.4 22:44:13 45° SSE 22:46:10 73° E 22:52:19 10° NNE
Cosmos 2360 Rocket 3.9 22:46:19 10° NW 22:50:15 20° W 22:51:53 17° WSW
Cosmos 1805 Rocket 4.3 22:49:13 37° WSW 22:50:24 46° WNW 22:54:42 10° N
Meteor 1-20 Rocket 4.4 22:54:51 38° SW 22:56:56 64° WNW 23:02:36 10° N
Cosmos 1110 Rocket 4.1 22:52:18 10° NNW 22:57:35 64° WSW 22:58:40 51° SSW
Cosmos 1980 3.7 22:53:44 10° NNW 22:59:26 76° ENE 23:01:19 43° SE
Cosmos 2333 Rocket 3.2 22:56:33 10° NW 23:01:30 32° WSW 23:02:38 29° SW
Cosmos 1331 Rocket 4.1 22:57:49 10° NNW 23:03:01 63° WSW 23:03:58 53° SSW
USA 234 3.3 23:10:02 41° SSE 23:12:08 58° SW 23:18:36 10° WNW
Nimbus 7 Rocket 4.4 23:06:06 10° NNE 23:12:10 81° ESE 23:14:02 47° S
Cosmos 1340 Rocket 3.6 23:13:35 39° E 23:13:35 39° E 23:17:02 10° NNE
NOSS 0 Rocket 4.0 23:08:09 10° NW 23:14:19 65° WSW 23:16:01 47° S
Cosmos 2297 Rocket 2.4 23:17:11 46° SE 23:18:11 52° ESE 23:23:41 10° NE
Okean 1-7 3.5 23:14:14 10° N 23:18:22 47° ENE 23:18:54 44° E
Lacrosse 5 2.3 23:21:59 43° ESE 23:21:59 43° ESE 23:26:26 10° ENE
Cosmos 2237 Rocket 2.1 23:16:49 10° NNW 23:22:32 81° WSW 23:24:02 51° SSE
Cosmos 2084 Rocket 3.3 23:19:59 10° NW 23:24:07 75° WSW 23:24:07 75° WSW
Cosmos 2242 Rocket 3.9 23:20:09 10° N 23:24:30 56° ENE 23:25:08 51° ESE
NOSS 2-2 (E) 4.3 23:20:08 10° NW 23:25:28 83° SW 23:28:32 36° SSE
Cosmos 1500 3.8 23:26:57 46° W 23:27:03 46° WNW 23:30:47 10° N
Cosmos 1470 Rocket 3.4 23:29:03 73° SW 23:29:23 80° W 23:33:44 10° N
Cosmos 2227 Rocket 2.5 23:28:53 44° SE 23:29:54 49° ESE 23:35:20 10° NE
Cosmos 1633 Rocket 3.7 23:33:06 39° WSW 23:33:48 43° WNW 23:37:59 10° N
Cosmos 1933 Rocket 3.4 23:35:34 71° SSE 23:36:00 79° E 23:40:28 10° NNE
Meteor 1-11 Rocket 4.0 23:41:19 43° SE 23:42:45 55° E 23:48:09 10° NNE
Cosmos 2219 Rocket 3.9 23:40:23 10° WNW 23:44:03 18° W 23:44:40 18° WSW
STPSAT 2 (USA 217) 4.5 23:43:08 10° NNW 23:47:45 82° WSW 23:48:16 69° S
Cosmos 2263 Rocket 4.3 23:46:36 12° ESE 23:48:26 14° E 23:51:12 10° ENE
NOSS 2-2 (C) 4.3 23:44:25 10° NW 23:49:41 71° SW 23:52:23 38° SSE
SL-16 R/B 2.5 23:44:15 10° NNW 23:49:54 65° ENE 23:52:42 30° SE
Cosmos 1992 Rocket 4.0 23:45:13 10° NNW 23:50:29 77° ENE 23:52:06 45° SE
PSLV R/B 3.7 23:46:31 10° NNE 23:51:19 82° WNW 23:52:12 59° SSW
Cosmos 1269 Rocket 4.0 23:50:05 50° SW 23:51:29 78° WNW 23:56:48 10° NNE
Resurs 1-4 Rocket 3.8 23:49:09 10° NE 23:53:15 22° E 23:55:13 18° ESE
